Tracking 27420 objects as of 28-May-2023
HD Live streaming from Space Station
objects crossing your sky now

CZ-4 DEB

Track CZ-4 DEB now!
10-day predictions


NORAD ID: 20881
Int'l Code: 1990-081AR
Perigee: 723.6 km
Apogee: 845.8 km
Inclination: 98.5 °
Period: 100.4 minutes
Semi major axis: 7155 km
RCS: 0.1863 m2 (medium)
Launch date: September 3, 1990
Source: People's Republic of China (PRC)
Launch site: Taiyaun Space Center, China (TSC)

Note: This is SATELLITE DEBRIS
Your satellite tracking list
Your tracking list is empty




NASA's NSSDC Master Catalog

Two Line Element Set (TLE):
1 20881U 90081AR  23147.74806229  .00003098  00000-0  10744-2 0  9990
2 20881  98.4678 152.3744 0085399  29.6083 330.9898 14.34249167691446
Source of the keplerian elements: AFSPC